Regional Weather Roundup
Issued by NWS

Home | Current Version | Previous Version | Text Only | Print | Product List | Glossary Off
Versions: 1 2 3 4 5 6 7 8 9 10 11 12 13 14 15 16 17 18 19 20 21 22 23 24 25 26 27 28 29 30 31 32 33 34 35 36 37 38 39 40 41 42 43 44 45 46 47 48 49 50

725
ASUS43 KIND 241909
RWRIN

WEATHER ROUNDUP FOR INDIANA
NATIONAL WEATHER SERVICE INDIANAPOLIS IN
300 PM EDT SUN JUL 24 2016

NOTE: "FAIR" INDICATES FEW OR NO CLOUDS BELOW 12,000 FEET WITH NO
SIGNIFICANT WEATHER AND/OR OBSTRUCTIONS TO VISIBILITY.

* - STATION DOES NOT REPORT WEATHER SUCH AS PRECIPITATION OR FOG.

+ - STATION NOT QUALITY CONTROLLED BY THE NATIONAL WEATHER SERVICE.
    USE DATA WITH CAUTION...ESPECIALLY DEWPOINT AND RELATIVE
    HUMIDITY OBSERVATIONS.

INZ001>003-010>013-019-020-242000-
NORTHWEST INDIANA

CITY           SKY/WX    TMP DP  RH WIND       PRES   REMARKS
GARY /AIRPORT/ PTSUNNY   90 N/A N/A S14       29.91F
KNOX *+        MOSUNNY   86  68  54 SW10      29.94F
LA PORTE +     CLOUDY    88  81  79 S10       29.94F HX 105
MICHIGAN CITY+ CLOUDY    88  77  70 S13       29.92F HX 100
MONTICELLO +   PTSUNNY   91  72  53 S14       29.95S HX  98
RENSSELAER +   CLOUDY    88  79  74 SW10      29.95S HX 102
VALPARAISO     CLOUDY    88  76  67 S15G21    29.93F HX  99

$$

LMZ046-743>745-242000-
SOUTHERN LAKE MICHIGAN

STATION/POSITION TIME  TEMP    WIND        PRES    WAVE
                       AIR SEA DIR/SP/G            HT
                 (UTC) (F)     (DEG/KT/KT) (MB)    (FT)
BURNS HARBOR     1800   87     190/ 16/ 18 1013.5S
MICHIGAN CITY    1800   86     170/ 13/ 16   N/A
5NW MICH CITY    1900   82 74  200/ 10/ 16   N/A     2

$$

INZ004-005-014>016-021>024-242000-
NORTH CENTRAL INDIANA

CITY           SKY/WX    TMP DP  RH WIND       PRES   REMARKS
ELKHART        PTSUNNY   86  81  84 S12       29.95F HX 102
GOSHEN         CLOUDY    89  73  59 S12       29.95F HX  97
LOGANSPORT +   PTSUNNY   88  77  70 SW10      29.97F HX 100
PERU/GRISSOM   CLOUDY    91  76  62 SW15      29.96F HX 102
ROCHESTER +    MOSUNNY   90  77  66 S9        29.96F HX 102
SOUTH BEND     CLOUDY    89  76  65 SW16      29.94F HX 100
WARSAW +       PTSUNNY   88  73  62 SW9       29.96F HX  96

$$

INZ006>009-017-018-025>027-242000-
NORTHEAST INDIANA

CITY           SKY/WX    TMP DP  RH WIND       PRES   REMARKS
ANGOLA *+        N/A     82  77  83 S9        29.98F
AUBURN +       MOSUNNY   86  70  58 E7        29.99F
FORT WAYNE     PTSUNNY   89  73  59 W10       29.98F HX  97
HUNTINGTON +   PTSUNNY  N/A N/A N/A SW8       29.97F

$$

INZ028-029-035-036-043>045-051>053-242000-
WEST CENTRAL INDIANA

CITY           SKY/WX    TMP DP  RH WIND       PRES   REMARKS
CRAWFORDSVL +  MOSUNNY   88  78  72 S9        29.97F HX 101
GREENCASTLE +  MOSUNNY   88  81  79 S6        29.99F HX 105
LAFAYETTE      MOSUNNY   90  77  65 SW12      29.95F HX 103
TERRE HAUTE    MOSUNNY   91  76  61 S13       29.97F HX 103

$$

INZ030>032-037>040-046>048-054>057-064-065-242000-
CENTRAL INDIANA

CITY           SKY/WX    TMP DP  RH WIND       PRES   REMARKS
COLUMBUS       PTSUNNY   90  81  74 S7        29.99F HX 108
FRANKFORT +    PTSUNNY   92  79  64 SW9       30.00F HX 109
INDIANAPOLIS   MOSUNNY   91  75  59 SW8       29.99F HX 101
-EAGLE CREEK   MOSUNNY   91  75  59 VRB5      29.98F HX 101
KOKOMO *+      PTSUNNY   91  75  59 S13       29.97F HX 102
MARION +       CLOUDY    87  75  67 SW7       29.99F HAZE    HX  97
MT COMFORT *+  MOSUNNY   90  75  62 S10       30.00F HX 100
SHELBYVILLE    MOSUNNY   92  77  61 W6        29.99S HX 105
ZIONSVILLE +   MOSUNNY   88  76  69 S8        30.00S HX  99

$$

INZ033-034-041-042-049-050-058-059-242000-
EAST CENTRAL INDIANA

CITY           SKY/WX    TMP DP  RH WIND       PRES   REMARKS
MUNCIE         PTSUNNY   91  73  55 SW10G20   30.00F HX  99

$$

INZ060-061-067>069-081>083-085>088-242000-
SOUTHWEST INDIANA

CITY           SKY/WX    TMP DP  RH WIND       PRES   REMARKS
EVANSVILLE     MOSUNNY   91  75  59 S9        29.98F HX 101
HUNTINGBURG *+ MOSUNNY   91  75  59 SW13      29.99F HX 102
WASHINGTON +   PTSUNNY   89  78  69 MISG      29.98F HX 103

$$

INZ062-063-066-070>080-084-089>092-242000-
SOUTH CENTRAL AND SOUTHEAST INDIANA

CITY           SKY/WX    TMP DP  RH WIND       PRES   REMARKS
BLOOMINGTON    SUNNY     90  75  61 W7        30.00F HX 100
MADISON *+     MOSUNNY   91  70  49 S7        30.03S HX  97

$$





USA.gov is the U.S. government's official web portal to all federal, state and local government web resources and services.